APJ849 RJAA-RJOM

Flight info

Callsign APJ849
Flight time 1h 24m
Altitude 36000
Route REDEK Y60 TOKOM Y604 WASYU Y28 BAMBO Y283 ITUKI
Aircraft A320/M-SDE3FGHIRWY/LB1

Departure

Time 2026-04-23 14:57
Airport Narita International Airport (RJAA)

Arrival

Time 2026-04-23 16:22
Airport Matsuyama Airport (RJOM)
Time Latitude Longitude Altitude Speed Heading
2026-04-23 14:16 35.76914 140.39270 144 ft 0 kts 277°
2026-04-23 14:45 35.76911 140.39295 144 ft 4 kts 278°
2026-04-23 14:45 35.76907 140.39328 144 ft 4 kts 279°
2026-04-23 14:46 35.76902 140.39361 144 ft 4 kts 278°
2026-04-23 14:46 35.76900 140.39393 144 ft 4 kts 266°
2026-04-23 14:46 35.76906 140.39420 144 ft 3 kts 212°
2026-04-23 14:46 35.76908 140.39423 144 ft 0 kts 204°
2026-04-23 14:49 35.76908 140.39422 144 ft 1 kts 204°
2026-04-23 14:49 35.76840 140.39385 144 ft 20 kts 204°
2026-04-23 14:49 35.76715 140.39350 144 ft 14 kts 146°
2026-04-23 14:49 35.76644 140.39390 144 ft 10 kts 199°
2026-04-23 14:50 35.76572 140.39349 144 ft 16 kts 204°
2026-04-23 14:50 35.76440 140.39277 144 ft 23 kts 204°
2026-04-23 14:50 35.76304 140.39202 144 ft 20 kts 204°
2026-04-23 14:50 35.76182 140.39139 144 ft 19 kts 197°
2026-04-23 14:51 35.76043 140.39065 144 ft 24 kts 205°
2026-04-23 14:51 35.75933 140.39096 143 ft 19 kts 149°
2026-04-23 14:51 35.75819 140.39148 143 ft 12 kts 206°
2026-04-23 14:51 35.75781 140.39079 143 ft 16 kts 238°
2026-04-23 14:52 35.75702 140.38916 144 ft 28 kts 239°
2026-04-23 14:52 35.75610 140.38720 144 ft 22 kts 239°
2026-04-23 14:52 35.75577 140.38659 144 ft 4 kts 153°
2026-04-23 14:52 35.75509 140.38723 144 ft 20 kts 150°
2026-04-23 14:53 35.75391 140.38705 144 ft 19 kts 205°
2026-04-23 14:53 35.75256 140.38666 145 ft 17 kts 142°
2026-04-23 14:53 35.75149 140.38739 145 ft 22 kts 149°
2026-04-23 14:53 35.75025 140.38829 145 ft 20 kts 149°
2026-04-23 14:54 35.74913 140.38909 145 ft 18 kts 150°
2026-04-23 14:54 35.74809 140.38984 145 ft 18 kts 149°
2026-04-23 14:54 35.74694 140.39068 144 ft 20 kts 149°
2026-04-23 14:54 35.74572 140.39098 144 ft 13 kts 212°
2026-04-23 14:55 35.74559 140.39081 144 ft 0 kts 236°
2026-04-23 14:56 35.74539 140.39042 144 ft 12 kts 238°
2026-04-23 14:56 35.74543 140.38921 143 ft 16 kts 321°
2026-04-23 14:56 35.74672 140.38828 145 ft 38 kts 330°
2026-04-23 14:56 35.75104 140.38516 144 ft 104 kts 330°
2026-04-23 14:57 35.75885 140.37950 151 ft 154 kts 329°
2026-04-23 14:57 35.76870 140.37268 628 ft 162 kts 334°
2026-04-23 14:57 35.77850 140.36561 1334 ft 165 kts 336°
2026-04-23 14:57 35.78860 140.35818 1917 ft 177 kts 336°
2026-04-23 14:58 35.79985 140.35002 2274 ft 200 kts 335°
2026-04-23 14:58 35.81267 140.34080 2786 ft 226 kts 335°
2026-04-23 14:58 35.82696 140.33051 3410 ft 251 kts 334°
2026-04-23 14:58 35.84235 140.31941 4389 ft 260 kts 333°
2026-04-23 14:59 35.85819 140.30787 5412 ft 267 kts 333°
2026-04-23 14:59 35.87434 140.29608 6400 ft 273 kts 333°
2026-04-23 14:59 35.89094 140.28398 6806 ft 279 kts 331°
2026-04-23 14:59 35.90770 140.27178 6972 ft 280 kts 330°
2026-04-23 15:00 35.92448 140.25958 7006 ft 280 kts 330°
2026-04-23 15:00 35.94124 140.24740 7013 ft 280 kts 330°
2026-04-23 15:00 35.95809 140.23545 7019 ft 279 kts 336°
2026-04-23 15:00 35.97660 140.22933 7021 ft 275 kts 359°
2026-04-23 15:01 35.99535 140.23205 7025 ft 272 kts 19°
2026-04-23 15:01 36.01189 140.24299 7028 ft 271 kts 40°
2026-04-23 15:01 36.02548 140.25913 7021 ft 270 kts 48°
2026-04-23 15:01 36.03615 140.27807 7029 ft 270 kts 65°
2026-04-23 15:02 36.04173 140.30013 7213 ft 274 kts 82°
2026-04-23 15:02 36.04246 140.32371 8064 ft 276 kts 90°
2026-04-23 15:02 36.04262 140.34757 8874 ft 280 kts 90°
2026-04-23 15:02 36.04285 140.37178 9698 ft 283 kts 91°
2026-04-23 15:03 36.04297 140.39643 10299 ft 294 kts 94°
2026-04-23 15:03 36.04050 140.42238 10533 ft 315 kts 104°
2026-04-23 15:03 36.03394 140.44905 10729 ft 336 kts 116°
2026-04-23 15:03 36.02293 140.47534 10893 ft 355 kts 125°
2026-04-23 15:04 36.00973 140.50184 11315 ft 367 kts 124°
2026-04-23 15:04 35.99610 140.52875 11920 ft 371 kts 129°
2026-04-23 15:04 35.97964 140.55331 12572 ft 372 kts 137°
2026-04-23 15:04 35.96183 140.57678 13360 ft 377 kts 138°
2026-04-23 15:05 35.94381 140.60043 14112 ft 381 kts 139°
2026-04-23 15:05 35.92501 140.62380 14701 ft 385 kts 146°
2026-04-23 15:05 35.90311 140.64248 15226 ft 382 kts 158°
2026-04-23 15:05 35.87866 140.65493 15738 ft 379 kts 171°
2026-04-23 15:06 35.85290 140.66079 16267 ft 375 kts 183°
2026-04-23 15:06 35.82703 140.66000 16792 ft 369 kts 194°
2026-04-23 15:06 35.80167 140.65458 17260 ft 372 kts 197°
2026-04-23 15:06 35.77601 140.64891 17768 ft 377 kts 197°
2026-04-23 15:07 35.75056 140.64129 18152 ft 376 kts 207°
2026-04-23 15:07 35.72747 140.62680 18602 ft 370 kts 219°
2026-04-23 15:07 35.70778 140.60682 19091 ft 367 kts 229°
2026-04-23 15:07 35.69178 140.58255 19549 ft 365 kts 239°
2026-04-23 15:08 35.67995 140.55489 20007 ft 366 kts 249°
2026-04-23 15:08 35.67104 140.52544 20454 ft 369 kts 250°
2026-04-23 15:08 35.66214 140.49577 20908 ft 371 kts 250°
2026-04-23 15:09 35.64413 140.43591 21800 ft 376 kts 250°
2026-04-23 15:09 35.63500 140.40562 22223 ft 379 kts 250°
2026-04-23 15:09 35.62580 140.37511 22629 ft 382 kts 250°
2026-04-23 15:09 35.61653 140.34443 23033 ft 385 kts 250°
2026-04-23 15:10 35.61021 140.32357 23307 ft 386 kts 250°
2026-04-23 15:10 35.59774 140.28237 23779 ft 389 kts 250°
2026-04-23 15:10 35.58829 140.25111 24152 ft 391 kts 250°
2026-04-23 15:10 35.57882 140.21984 24535 ft 392 kts 250°
2026-04-23 15:11 35.56927 140.18841 24907 ft 393 kts 250°
2026-04-23 15:11 35.55969 140.15695 25250 ft 394 kts 250°
2026-04-23 15:11 35.55006 140.12540 25625 ft 395 kts 250°
2026-04-23 15:11 35.54041 140.09373 25972 ft 396 kts 250°
2026-04-23 15:12 35.53060 140.06157 26307 ft 397 kts 250°
2026-04-23 15:12 35.52093 140.02982 26629 ft 398 kts 250°
2026-04-23 15:12 35.51132 139.99836 26984 ft 400 kts 250°
2026-04-23 15:12 35.50153 139.96640 27360 ft 401 kts 250°
2026-04-23 15:13 35.49155 139.93392 27724 ft 402 kts 250°
2026-04-23 15:13 35.48183 139.90233 28207 ft 400 kts 250°
2026-04-23 15:13 35.47203 139.87054 28704 ft 397 kts 250°
2026-04-23 15:13 35.46203 139.83853 29176 ft 395 kts 249°
2026-04-23 15:14 35.45227 139.80766 29624 ft 393 kts 249°
2026-04-23 15:14 35.44226 139.77615 30060 ft 390 kts 249°
2026-04-23 15:14 35.43242 139.74519 30421 ft 388 kts 249°
2026-04-23 15:14 35.42264 139.71436 30788 ft 387 kts 249°
2026-04-23 15:15 35.41293 139.68367 31185 ft 385 kts 250°
2026-04-23 15:15 35.40327 139.65312 31584 ft 383 kts 250°
2026-04-23 15:15 35.39371 139.62297 31986 ft 381 kts 250°
2026-04-23 15:15 35.38422 139.59303 32372 ft 379 kts 250°
2026-04-23 15:16 35.37456 139.56263 32756 ft 377 kts 250°
2026-04-23 15:16 35.36506 139.53280 33134 ft 375 kts 250°
2026-04-23 15:16 35.35563 139.50314 33536 ft 372 kts 250°
2026-04-23 15:16 35.34756 139.47324 33956 ft 369 kts 257°
2026-04-23 15:17 35.34411 139.44220 34346 ft 368 kts 265°
2026-04-23 15:17 35.34275 139.41094 34681 ft 367 kts 265°
2026-04-23 15:17 35.34131 139.37975 35009 ft 366 kts 265°
2026-04-23 15:17 35.33986 139.34872 35362 ft 364 kts 265°
2026-04-23 15:18 35.33842 139.31784 35696 ft 362 kts 265°
2026-04-23 15:18 35.33697 139.28699 35872 ft 362 kts 265°
2026-04-23 15:18 35.33551 139.25612 35902 ft 365 kts 265°
2026-04-23 15:19 35.33254 139.19405 35903 ft 365 kts 265°
2026-04-23 15:19 35.32956 139.13203 35897 ft 365 kts 265°
2026-04-23 15:20 35.32709 139.08048 35878 ft 365 kts 265°
2026-04-23 15:20 35.32349 139.00819 35884 ft 363 kts 265°
2026-04-23 15:21 35.32043 138.94628 35878 ft 364 kts 265°
2026-04-23 15:21 35.31744 138.88438 35871 ft 364 kts 265°
2026-04-23 15:22 35.31429 138.82253 35851 ft 364 kts 265°
2026-04-23 15:22 35.31111 138.76060 35867 ft 364 kts 265°
2026-04-23 15:23 35.30789 138.69872 35862 ft 364 kts 265°
2026-04-23 15:23 35.30522 138.64725 35852 ft 364 kts 265°
2026-04-23 15:24 35.30201 138.58545 35867 ft 363 kts 265°
2026-04-23 15:24 35.29868 138.52371 35853 ft 364 kts 264°
2026-04-23 15:25 35.29533 138.46194 35842 ft 364 kts 265°
2026-04-23 15:25 35.29203 138.40012 35853 ft 364 kts 265°
2026-04-23 15:26 35.28872 138.33848 35882 ft 363 kts 265°
2026-04-23 15:26 35.28529 138.27690 35861 ft 363 kts 264°
2026-04-23 15:27 35.28185 138.21538 35855 ft 362 kts 264°
2026-04-23 15:27 35.27845 138.15401 35857 ft 361 kts 264°
2026-04-23 15:28 35.27504 138.09267 35844 ft 362 kts 264°
2026-04-23 15:28 35.27149 138.03095 35847 ft 361 kts 264°
2026-04-23 15:29 35.26795 137.96967 35838 ft 362 kts 264°
2026-04-23 15:29 35.26438 137.90845 35833 ft 360 kts 264°
2026-04-23 15:30 35.26076 137.84734 35841 ft 361 kts 264°
2026-04-23 15:30 35.25716 137.78641 35812 ft 361 kts 263°
2026-04-23 15:31 35.25275 137.72485 35819 ft 361 kts 263°
2026-04-23 15:31 35.24797 137.66398 35813 ft 362 kts 263°
2026-04-23 15:32 35.24238 137.60233 35808 ft 362 kts 257°
2026-04-23 15:32 35.22687 137.54394 35796 ft 361 kts 251°
2026-04-23 15:33 35.21029 137.48592 35803 ft 361 kts 252°
2026-04-23 15:33 35.19376 137.42786 35805 ft 362 kts 252°
2026-04-23 15:34 35.17715 137.36976 35783 ft 362 kts 252°
2026-04-23 15:34 35.16052 137.31175 35795 ft 362 kts 251°
2026-04-23 15:35 35.14376 137.25368 35794 ft 362 kts 251°
2026-04-23 15:35 35.12699 137.19557 35800 ft 363 kts 251°
2026-04-23 15:36 35.11023 137.13740 35805 ft 363 kts 251°
2026-04-23 15:36 35.09337 137.07930 35809 ft 363 kts 251°
2026-04-23 15:37 35.07647 137.02129 35809 ft 363 kts 251°
2026-04-23 15:37 35.05954 136.96321 35831 ft 363 kts 251°
2026-04-23 15:38 35.04261 136.90513 35831 ft 363 kts 251°
2026-04-23 15:38 35.02574 136.84715 35825 ft 363 kts 251°
2026-04-23 15:39 35.00884 136.78911 35821 ft 362 kts 252°
2026-04-23 15:39 34.99380 136.73051 35812 ft 362 kts 254°
2026-04-23 15:40 34.97971 136.67153 35814 ft 362 kts 254°
2026-04-23 15:40 34.96542 136.61263 35813 ft 362 kts 253°
2026-04-23 15:41 34.95087 136.55381 35814 ft 362 kts 253°
2026-04-23 15:41 34.93622 136.49504 35816 ft 362 kts 253°
2026-04-23 15:42 34.92155 136.43629 35823 ft 362 kts 253°
2026-04-23 15:42 34.90681 136.37754 35826 ft 362 kts 253°
2026-04-23 15:43 34.89207 136.31888 35833 ft 362 kts 253°
2026-04-23 15:43 34.87728 136.26014 35835 ft 362 kts 253°
2026-04-23 15:44 34.86245 136.20157 35839 ft 362 kts 253°
2026-04-23 15:44 34.84761 136.14294 35826 ft 362 kts 253°
2026-04-23 15:45 34.83282 136.08445 35834 ft 362 kts 253°
2026-04-23 15:45 34.81796 136.02584 35839 ft 362 kts 253°
2026-04-23 15:46 34.80309 135.96725 35860 ft 362 kts 253°
2026-04-23 15:46 34.78815 135.90872 35857 ft 362 kts 253°
2026-04-23 15:47 34.77318 135.85022 35849 ft 362 kts 253°
2026-04-23 15:47 34.75817 135.79178 35852 ft 362 kts 253°
2026-04-23 15:48 34.74312 135.73337 35843 ft 362 kts 253°
2026-04-23 15:48 34.72808 135.67493 35843 ft 362 kts 253°
2026-04-23 15:49 34.71301 135.61655 35851 ft 362 kts 253°
2026-04-23 15:49 34.69793 135.55816 35853 ft 362 kts 253°
2026-04-23 15:50 34.68282 135.49985 35853 ft 362 kts 253°
2026-04-23 15:50 34.66768 135.44159 35855 ft 362 kts 253°
2026-04-23 15:51 34.65365 135.38300 35846 ft 361 kts 257°
2026-04-23 15:51 34.64314 135.32337 35853 ft 361 kts 257°
2026-04-23 15:52 34.63241 135.26381 35856 ft 361 kts 257°
2026-04-23 15:52 34.62161 135.20432 35857 ft 361 kts 257°
2026-04-23 15:53 34.61088 135.14476 35879 ft 361 kts 257°
2026-04-23 15:53 34.60014 135.08516 35871 ft 361 kts 257°
2026-04-23 15:54 34.58937 135.02564 35870 ft 362 kts 257°
2026-04-23 15:54 34.57850 134.96600 35886 ft 362 kts 257°
2026-04-23 15:55 34.56769 134.90640 35848 ft 361 kts 257°
2026-04-23 15:55 34.55687 134.84688 35862 ft 361 kts 257°
2026-04-23 15:56 34.54595 134.78750 35871 ft 360 kts 257°
2026-04-23 15:56 34.53503 134.72819 35875 ft 360 kts 257°
2026-04-23 15:57 34.52411 134.66895 35878 ft 360 kts 257°
2026-04-23 15:57 34.51310 134.60978 35882 ft 359 kts 257°
2026-04-23 15:58 34.50202 134.55028 35883 ft 359 kts 257°
2026-04-23 15:58 34.49117 134.49168 35882 ft 359 kts 257°
2026-04-23 15:59 34.48013 134.43237 35884 ft 358 kts 257°
2026-04-23 15:59 34.46920 134.37383 35895 ft 358 kts 257°
2026-04-23 16:00 34.45816 134.31503 35875 ft 358 kts 257°
2026-04-23 16:00 34.44702 134.25626 35879 ft 358 kts 257°
2026-04-23 16:01 34.43612 134.19752 35891 ft 357 kts 259°
2026-04-23 16:01 34.43585 134.13708 35715 ft 362 kts 270°
2026-04-23 16:01 34.43692 134.11653 35550 ft 362 kts 269°
2026-04-23 16:02 34.43846 134.08607 35309 ft 363 kts 269°
2026-04-23 16:02 34.43997 134.05551 35064 ft 365 kts 269°
2026-04-23 16:02 34.44146 134.02479 34845 ft 366 kts 269°
2026-04-23 16:02 34.44296 133.99383 34579 ft 369 kts 269°
2026-04-23 16:03 34.44445 133.96276 34345 ft 370 kts 269°
2026-04-23 16:03 34.44597 133.93160 34113 ft 371 kts 269°
2026-04-23 16:03 34.44752 133.90031 33883 ft 373 kts 269°
2026-04-23 16:03 34.44910 133.86886 33622 ft 375 kts 269°
2026-04-23 16:04 34.45065 133.83734 33359 ft 376 kts 269°
2026-04-23 16:04 34.45218 133.80568 33122 ft 378 kts 269°
2026-04-23 16:04 34.45371 133.77378 32868 ft 380 kts 269°
2026-04-23 16:04 34.45523 133.74180 32610 ft 381 kts 269°
2026-04-23 16:05 34.45672 133.70971 32356 ft 382 kts 269°
2026-04-23 16:05 34.45818 133.67747 32102 ft 384 kts 269°
2026-04-23 16:05 34.45967 133.64518 31846 ft 385 kts 269°
2026-04-23 16:05 34.46119 133.61268 31044 ft 388 kts 269°
2026-04-23 16:06 34.46274 133.57996 30220 ft 389 kts 269°
2026-04-23 16:06 34.46426 133.54711 29215 ft 392 kts 269°
2026-04-23 16:06 34.46576 133.51408 28200 ft 393 kts 269°
2026-04-23 16:06 34.46723 133.48110 27275 ft 393 kts 270°
2026-04-23 16:07 34.46869 133.44793 26250 ft 395 kts 270°
2026-04-23 16:07 34.46928 133.43451 25841 ft 396 kts 270°
2026-04-23 16:08 34.46953 133.42902 25680 ft 396 kts 270°
2026-04-23 16:08 34.46917 133.39562 24689 ft 396 kts 262°
2026-04-23 16:08 34.46423 133.36275 23732 ft 398 kts 254°
2026-04-23 16:09 34.45514 133.33102 22664 ft 401 kts 250°
2026-04-23 16:09 34.44518 133.29941 21560 ft 404 kts 250°
2026-04-23 16:09 34.43515 133.26750 20627 ft 405 kts 250°
2026-04-23 16:09 34.42519 133.23569 19781 ft 403 kts 250°
2026-04-23 16:10 34.41526 133.20398 18930 ft 403 kts 250°
2026-04-23 16:10 34.40531 133.17222 18119 ft 403 kts 250°
2026-04-23 16:10 34.39533 133.14054 17287 ft 401 kts 250°
2026-04-23 16:10 34.38542 133.10936 16557 ft 395 kts 250°
2026-04-23 16:11 34.37554 133.07844 15837 ft 392 kts 250°
2026-04-23 16:11 34.36576 133.04786 15147 ft 390 kts 250°
2026-04-23 16:11 34.35597 133.01734 14483 ft 387 kts 250°
2026-04-23 16:11 34.34629 132.98707 13836 ft 385 kts 250°
2026-04-23 16:12 34.33667 132.95700 13153 ft 382 kts 250°
2026-04-23 16:12 34.32535 132.92812 12535 ft 379 kts 239°
2026-04-23 16:12 34.30933 132.90302 11924 ft 376 kts 227°
2026-04-23 16:12 34.28925 132.88291 11315 ft 375 kts 214°
2026-04-23 16:13 34.26633 132.86904 11124 ft 362 kts 201°
2026-04-23 16:13 34.21997 132.85306 10878 ft 332 kts 197°
2026-04-23 16:13 34.19810 132.84574 10758 ft 320 kts 197°
2026-04-23 16:14 34.17705 132.83869 10636 ft 308 kts 197°
2026-04-23 16:14 34.15676 132.83191 10473 ft 299 kts 197°
2026-04-23 16:14 34.13686 132.82522 10221 ft 295 kts 197°
2026-04-23 16:14 34.11718 132.81859 9983 ft 293 kts 197°
2026-04-23 16:15 34.09762 132.81201 9859 ft 292 kts 197°
2026-04-23 16:15 34.07774 132.80661 9734 ft 293 kts 187°
2026-04-23 16:15 34.05735 132.80685 9525 ft 295 kts 173°
2026-04-23 16:15 34.03680 132.81132 8912 ft 301 kts 174°
2026-04-23 16:16 34.01623 132.80787 8548 ft 295 kts 206°
2026-04-23 16:16 34.00094 132.79239 8210 ft 287 kts 239°
2026-04-23 16:16 33.99427 132.77041 7772 ft 284 kts 262°
2026-04-23 16:16 33.99051 132.74660 7265 ft 287 kts 258°
2026-04-23 16:17 33.98568 132.72350 6807 ft 288 kts 256°
2026-04-23 16:17 33.98021 132.70037 6142 ft 287 kts 255°
2026-04-23 16:17 33.97450 132.67729 5397 ft 288 kts 254°
2026-04-23 16:17 33.96865 132.65374 4626 ft 291 kts 254°
2026-04-23 16:18 33.96286 132.63019 3906 ft 293 kts 254°
2026-04-23 16:18 33.95724 132.60712 3632 ft 280 kts 254°
2026-04-23 16:18 33.94911 132.58697 3484 ft 258 kts 224°
2026-04-23 16:18 33.93476 132.57659 3369 ft 238 kts 186°
2026-04-23 16:19 33.91887 132.57740 2962 ft 227 kts 153°
2026-04-23 16:19 33.90643 132.58820 2364 ft 221 kts 126°
2026-04-23 16:19 33.89642 132.60234 1937 ft 214 kts 124°
2026-04-23 16:19 33.88729 132.61529 1651 ft 199 kts 126°
2026-04-23 16:20 33.87852 132.62765 1371 ft 184 kts 126°
2026-04-23 16:20 33.87044 132.63900 1129 ft 172 kts 126°
2026-04-23 16:20 33.86294 132.64952 912 ft 159 kts 127°
2026-04-23 16:20 33.85605 132.65919 698 ft 147 kts 126°
2026-04-23 16:21 33.84950 132.66842 497 ft 142 kts 125°
2026-04-23 16:21 33.84306 132.67749 303 ft 142 kts 127°
2026-04-23 16:21 33.83665 132.68648 139 ft 141 kts 127°
2026-04-23 16:21 33.83032 132.69517 29 ft 128 kts 125°
2026-04-23 16:22 33.82622 132.70101 18 ft 49 kts 130°
2026-04-23 16:22 33.82512 132.70257 16 ft 20 kts 130°
2026-04-23 16:22 33.82421 132.70383 16 ft 20 kts 131°
2026-04-23 16:22 33.82329 132.70512 17 ft 21 kts 130°
2026-04-23 16:23 33.82340 132.70640 17 ft 14 kts 43°
2026-04-23 16:23 33.82429 132.70674 19 ft 15 kts 332°
2026-04-23 16:23 33.82504 132.70576 17 ft 17 kts 311°
2026-04-23 16:23 33.82586 132.70462 19 ft 19 kts 310°
2026-04-23 16:24 33.82677 132.70349 20 ft 16 kts 336°
2026-04-23 16:24 33.82771 132.70299 19 ft 13 kts 347°
2026-04-23 16:24 33.82829 132.70338 20 ft 9 kts 29°
2026-04-23 16:24 33.82846 132.70349 19 ft 0 kts 28°